Regional Weather Roundup
Issued by NWS

Home | Current Version | Previous Version | Text Only | Print | Product List | Glossary On
Versions: 1 2 3 4 5 6 7 8 9 10 11 12 13 14 15 16 17 18 19 20 21 22 23 24 25 26 27 28 29 30 31 32 33 34 35 36 37 38 39 40 41 42 43 44 45 46 47 48 49 50
000
ASUS45 KABQ 051210
RWRNM
NEW MEXICO REGIONAL WEATHER ROUNDUP
NATIONAL WEATHER SERVICE ALBUQUERQUE NM
600 AM MDT SAT SEP 05 2015

NOTE: "FAIR" MEANS FEW OR NO CLOUDS BELOW 12,000 FEET AGL WITH NO
       SIGNIFICANT WEATHER OR OBSTRUCTIONS TO VISION.

      THIS PRODUCT IS RELEASED AS TWO VERSIONS.  ONE VERSION NEAR
      THE TOP OF THE HOUR CONTAINING PRELIMINARY DATA FROM ALBUQUERQUE
      AND OTHER STATIONS.  A FINAL VERSION WITH ADDITIONAL DATA IS
      ISSUED ABOUT 10 MINUTES AFTER THE HOUR.

NMZ501-503-504-510>518-051300-
NORTHWEST PLATEAU/NORTHCENTRAL MOUNTAINS

CITY           SKY/WX    TMP DP  RH WIND       PRES   REMARKS
FARMINGTON     CLOUDY    61  57  87 E8        30.13S
6HR MIN TEMP:  59; 6HR MAX TEMP:  62; 6HR PCP:  0.01;

LOS ALAMOS     CLOUDY    56  54  94 S7        30.25F
SANTA FE       CLOUDY    57  54  89 CALM      30.21R
6HR MIN TEMP:  57; 6HR MAX TEMP:  60; 6HR PCP:  0.01;

TAOS           CLOUDY    55  45  67 CALM      30.27R
ANGEL FIRE     FAIR      52  48  87 SE6       30.28F

$$
NMZ402-403-502-505>509-051300-
WESTCENTRAL MOUNTAINS/SOUTHWEST MOUNTAINS

CITY           SKY/WX    TMP DP  RH WIND       PRES   REMARKS
GALLUP         CLOUDY    57  54  89 CALM      30.19F
6HR MIN TEMP:  57; 6HR MAX TEMP:  60; 6HR PCP:  0.01;

GRANTS         MOCLDY    56  55  98 CALM      30.22F
SILVER CITY      N/A     59  57  94 NW7       30.16R

$$
NMZ407-409-411-412-051300-
SOUTHERN DESERTS

CITY           SKY/WX    TMP DP  RH WIND       PRES   REMARKS
LORDSBURG      FAIR      63  61  94 CALM      30.07S
DEMING         MOCLDY    61  60  97 SW3       30.09R
6HR MIN TEMP:  61; 6HR MAX TEMP:  66;

LAS CRUCES     MOCLDY    68  56  67 N3        30.08S
HOLLOMAN AFB   CLOUDY    68  56  64 N2        30.03R
ALAMOGORDO     PTCLDY    68  54  60 E7        30.05S
T OR C         MOCLDY    63  57  81 CALM      30.10R
6HR MIN TEMP:  61; 6HR MAX TEMP:  67;


$$
NMZ519>523-051300-
CENTRAL VALLEYS/CENTRAL HIGHLANDS

CITY           SKY/WX    TMP DP  RH WIND       PRES   REMARKS
ALBUQUERQUE    CLOUDY    64  59  83 N6        30.16S
6HR MIN TEMP:  63; 6HR MAX TEMP:  65; 6HR PCP: TRACE;

DOUBLE EAGLE   MOCLDY    57  57 100 CALM      30.19S
MORIARTY ARPT  FOG       51  49  92 CALM      30.22R VSB 1/2
6HR MIN TEMP:  51; 6HR MAX TEMP:  60;

CLINES CORNERS MOCLDY    54  50  86 NW8       30.23R
6HR MIN TEMP:  54; 6HR MAX TEMP:  59; 6HR PCP: TRACE;

BELEN          CLOUDY    62  60  95 CALM      30.15R
6HR MIN TEMP:  61; 6HR MAX TEMP:  65;

SOCORRO        FAIR      62  59  88 NW3       30.11F
6HR MIN TEMP:  60; 6HR MAX TEMP:  66;


$$
NMZ524>526-539-540-051300-
SOUTHCENTRAL MOUNTAINS

CITY           SKY/WX    TMP DP  RH WIND       PRES   REMARKS
RUIDOSO        PTCLDY    57  52  82 S5        30.25S

$$
NMZ527>531-051300-
NORTHEAST HIGHLANDS/NORTHEAST PLAINS

CITY           SKY/WX    TMP DP  RH WIND       PRES   REMARKS
LAS VEGAS      MOCLDY    57  50  77 S12       30.21R
6HR MIN TEMP:  57; 6HR MAX TEMP:  64;

RATON          MOCLDY    58  49  72 S9        30.14R
6HR MIN TEMP:  58; 6HR MAX TEMP:  66;

CLAYTON        MOCLDY    63  52  67 SW6       30.08R
6HR MIN TEMP:  63; 6HR MAX TEMP:  71;


$$
NMZ532>537-051300-
EASTCENTRAL PLAINS

CITY           SKY/WX    TMP DP  RH WIND       PRES   REMARKS
TUCUMCARI      PTCLDY    61  53  75 CALM      30.04S
6HR MIN TEMP:  60; 6HR MAX TEMP:  72;

CANNON AFB     PTCLDY    62  54  74 SE3       30.09R
6HR MIN TEMP:  62; 6HR MAX TEMP:  72;

CLOVIS AIRPORT PTCLDY    61  52  72 S7        30.10R

$$
NMZ028-029-538-051300-
SOUTHEAST PLAINS

CITY           SKY/WX    TMP DP  RH WIND       PRES   REMARKS
ROSWELL        CLEAR     64  53  67 SW6       30.04R
6HR MIN TEMP:  64; 6HR MAX TEMP:  76;

ARTESIA        CLEAR     66  54  63 NW5       30.05R
CARLSBAD       CLEAR     71  53  52 SW5       30.01R
6HR MIN TEMP:  69; 6HR MAX TEMP:  79;

HOBBS          CLEAR     68  57  68 S3        30.07R


$$



USA.gov is the U.S. government's official web portal to all federal, state and local government web resources and services.